SIA126 WSSS-WMKK

Flight info

Callsign SIA126
Flight time 0h 31m
Altitude 20000
Route MASBO3A MASBO A457 GUPTA DCT MOTKA DCT FF32R
Aircraft B772/H-SDE2E3FGHIJ5LORVWXY/LB1D1

Departure

Time 2026-05-03 22:50
Airport Singapore Changi Airport (WSSS)

Arrival

Time 2026-05-03 23:22
Airport Kuala Lumpur International Airport (WMKK)
Time Latitude Longitude Altitude Speed Heading
2026-05-03 22:21 1.35773 103.99395 29 ft 0 kts 193°
2026-05-03 22:40 1.35780 103.99396 28 ft 2 kts 194°
2026-05-03 22:40 1.35799 103.99402 28 ft 3 kts 197°
2026-05-03 22:40 1.35819 103.99408 27 ft 3 kts 199°
2026-05-03 22:41 1.35838 103.99414 27 ft 3 kts 198°
2026-05-03 22:41 1.35857 103.99420 28 ft 3 kts 194°
2026-05-03 22:41 1.35873 103.99423 29 ft 3 kts 147°
2026-05-03 22:41 1.35880 103.99416 26 ft 2 kts 113°
2026-05-03 22:42 1.35887 103.99399 27 ft 3 kts 113°
2026-05-03 22:42 1.35894 103.99384 28 ft 1 kts 113°
2026-05-03 22:42 1.35894 103.99383 28 ft 0 kts 113°
2026-05-03 22:44 1.35878 103.99421 29 ft 10 kts 113°
2026-05-03 22:44 1.35842 103.99503 30 ft 16 kts 122°
2026-05-03 22:44 1.35730 103.99501 30 ft 20 kts 202°
2026-05-03 22:45 1.35585 103.99439 31 ft 25 kts 203°
2026-05-03 22:45 1.35432 103.99376 30 ft 22 kts 202°
2026-05-03 22:45 1.35275 103.99310 30 ft 27 kts 202°
2026-05-03 22:45 1.35100 103.99237 30 ft 27 kts 202°
2026-05-03 22:46 1.34922 103.99163 30 ft 27 kts 203°
2026-05-03 22:46 1.34756 103.99092 30 ft 24 kts 202°
2026-05-03 22:46 1.34632 103.99041 31 ft 18 kts 202°
2026-05-03 22:46 1.34465 103.98971 31 ft 25 kts 202°
2026-05-03 22:47 1.34316 103.98909 31 ft 22 kts 202°
2026-05-03 22:47 1.34175 103.98850 31 ft 28 kts 202°
2026-05-03 22:47 1.33990 103.98771 30 ft 28 kts 202°
2026-05-03 22:47 1.33819 103.98700 30 ft 28 kts 202°
2026-05-03 22:48 1.33647 103.98628 30 ft 24 kts 203°
2026-05-03 22:48 1.33500 103.98566 30 ft 21 kts 202°
2026-05-03 22:48 1.33369 103.98512 30 ft 23 kts 202°
2026-05-03 22:48 1.33191 103.98437 30 ft 26 kts 203°
2026-05-03 22:49 1.33054 103.98435 31 ft 12 kts 116°
2026-05-03 22:49 1.33029 103.98501 33 ft 9 kts 110°
2026-05-03 22:49 1.33029 103.98541 34 ft 9 kts 72°
2026-05-03 22:49 1.33078 103.98584 33 ft 16 kts 25°
2026-05-03 22:50 1.33516 103.98769 30 ft 100 kts 22°
2026-05-03 22:50 1.34057 103.98997 34 ft 148 kts 23°
2026-05-03 22:50 1.35147 103.99451 398 ft 178 kts 22°
2026-05-03 22:50 1.36274 103.99924 1417 ft 173 kts 22°
2026-05-03 22:51 1.37402 104.00397 2018 ft 184 kts 22°
2026-05-03 22:51 1.38674 104.00940 2276 ft 212 kts 22°
2026-05-03 22:51 1.40112 104.01552 2558 ft 234 kts 22°
2026-05-03 22:51 1.41656 104.02205 3051 ft 251 kts 22°
2026-05-03 22:52 1.43302 104.02899 3583 ft 264 kts 22°
2026-05-03 22:52 1.45024 104.03624 4330 ft 271 kts 22°
2026-05-03 22:52 1.46778 104.04363 5128 ft 275 kts 22°
2026-05-03 22:52 1.48578 104.04954 5784 ft 277 kts
2026-05-03 22:53 1.50494 104.04731 6461 ft 280 kts 339°
2026-05-03 22:53 1.52235 104.03887 7114 ft 281 kts 331°
2026-05-03 22:53 1.53969 104.02942 7820 ft 284 kts 330°
2026-05-03 22:53 1.55711 104.01983 8567 ft 286 kts 331°
2026-05-03 22:54 1.57469 104.01016 9275 ft 290 kts 331°
2026-05-03 22:54 1.59227 104.00055 9965 ft 293 kts 331°
2026-05-03 22:54 1.61058 103.99059 10406 ft 309 kts 332°
2026-05-03 22:54 1.63031 103.97990 10573 ft 335 kts 332°
2026-05-03 22:55 1.65110 103.96865 10961 ft 353 kts 332°
2026-05-03 22:55 1.67310 103.95676 11632 ft 364 kts 332°
2026-05-03 22:55 1.69540 103.94473 12487 ft 370 kts 332°
2026-05-03 22:55 1.71825 103.93240 13433 ft 375 kts 333°
2026-05-03 22:56 1.74016 103.91813 14079 ft 381 kts 317°
2026-05-03 22:56 1.75583 103.89675 14742 ft 391 kts 296°
2026-05-03 22:56 1.76367 103.87058 15532 ft 394 kts 279°
2026-05-03 22:56 1.76765 103.84311 16218 ft 403 kts 278°
2026-05-03 22:57 1.77135 103.81518 17056 ft 408 kts 277°
2026-05-03 22:57 1.77513 103.78723 17937 ft 412 kts 278°
2026-05-03 22:57 1.77920 103.75860 18730 ft 417 kts 278°
2026-05-03 22:57 1.78349 103.72965 19479 ft 422 kts 278°
2026-05-03 22:58 1.78788 103.70050 19963 ft 425 kts 278°
2026-05-03 22:58 1.79235 103.67050 19993 ft 449 kts 278°
2026-05-03 22:58 1.79694 103.63880 19998 ft 469 kts 278°
2026-05-03 22:58 1.80160 103.60631 19994 ft 472 kts 278°
2026-05-03 22:59 1.80619 103.57417 19983 ft 472 kts 278°
2026-05-03 22:59 1.81086 103.54160 19976 ft 472 kts 278°
2026-05-03 22:59 1.81554 103.50906 19982 ft 471 kts 278°
2026-05-03 22:59 1.82020 103.47666 19991 ft 471 kts 278°
2026-05-03 23:00 1.82479 103.44481 20007 ft 471 kts 278°
2026-05-03 23:00 1.82948 103.41226 20010 ft 471 kts 278°
2026-05-03 23:00 1.83415 103.37985 20016 ft 471 kts 278°
2026-05-03 23:00 1.83883 103.34736 20014 ft 471 kts 278°
2026-05-03 23:01 1.84348 103.31501 20009 ft 471 kts 278°
2026-05-03 23:01 1.84913 103.28292 20011 ft 471 kts 285°
2026-05-03 23:01 1.86119 103.25245 20021 ft 471 kts 296°
2026-05-03 23:01 1.87620 103.22329 20011 ft 471 kts 298°
2026-05-03 23:02 1.89140 103.19457 20009 ft 471 kts 298°
2026-05-03 23:02 1.90662 103.16542 20008 ft 472 kts 297°
2026-05-03 23:02 1.92156 103.13611 20013 ft 472 kts 297°
2026-05-03 23:02 1.93624 103.10668 20013 ft 472 kts 296°
2026-05-03 23:03 1.95079 103.07713 20008 ft 473 kts 296°
2026-05-03 23:03 1.96507 103.04800 20012 ft 473 kts 296°
2026-05-03 23:03 1.97945 103.01862 19741 ft 465 kts 296°
2026-05-03 23:03 1.99292 102.99113 19358 ft 454 kts 296°
2026-05-03 23:04 2.00650 102.96348 19015 ft 441 kts 296°
2026-05-03 23:04 2.01972 102.93655 18674 ft 431 kts 296°
2026-05-03 23:04 2.03281 102.90992 18320 ft 421 kts 296°
2026-05-03 23:04 2.04560 102.88389 17960 ft 413 kts 296°
2026-05-03 23:05 2.05825 102.85801 17585 ft 410 kts 296°
2026-05-03 23:05 2.07053 102.83271 17216 ft 407 kts 296°
2026-05-03 23:05 2.08285 102.80729 16845 ft 404 kts 296°
2026-05-03 23:05 2.09508 102.78203 16475 ft 402 kts 296°
2026-05-03 23:06 2.10726 102.75691 16124 ft 400 kts 296°
2026-05-03 23:06 2.11936 102.73197 15759 ft 397 kts 296°
2026-05-03 23:06 2.13144 102.70707 15405 ft 395 kts 296°
2026-05-03 23:06 2.14330 102.68262 15063 ft 393 kts 296°
2026-05-03 23:07 2.15516 102.65819 14720 ft 391 kts 296°
2026-05-03 23:07 2.16697 102.63369 14371 ft 389 kts 295°
2026-05-03 23:07 2.17802 102.60903 14037 ft 387 kts 294°
2026-05-03 23:07 2.18858 102.58433 13712 ft 384 kts 293°
2026-05-03 23:08 2.19884 102.56001 13364 ft 382 kts 293°
2026-05-03 23:08 2.20916 102.53562 13017 ft 379 kts 293°
2026-05-03 23:08 2.21948 102.51137 12662 ft 376 kts 293°
2026-05-03 23:08 2.22962 102.48764 12326 ft 374 kts 294°
2026-05-03 23:09 2.23981 102.46388 11989 ft 371 kts 294°
2026-05-03 23:09 2.24996 102.44027 11667 ft 368 kts 294°
2026-05-03 23:09 2.26002 102.41690 11357 ft 365 kts 294°
2026-05-03 23:09 2.27006 102.39358 11053 ft 363 kts 294°
2026-05-03 23:10 2.28002 102.37045 10745 ft 361 kts 294°
2026-05-03 23:10 2.28993 102.34745 10454 ft 359 kts 293°
2026-05-03 23:10 2.29979 102.32456 10144 ft 358 kts 293°
2026-05-03 23:10 2.30961 102.30174 9846 ft 356 kts 293°
2026-05-03 23:11 2.31929 102.27926 9513 ft 348 kts 293°
2026-05-03 23:11 2.32877 102.25725 9192 ft 342 kts 293°
2026-05-03 23:11 2.33804 102.23570 8850 ft 329 kts 293°
2026-05-03 23:11 2.34697 102.21496 8523 ft 322 kts 293°
2026-05-03 23:12 2.35576 102.19454 8205 ft 317 kts 293°
2026-05-03 23:12 2.36429 102.17472 7956 ft 311 kts 293°
2026-05-03 23:12 2.37282 102.15491 7709 ft 309 kts 294°
2026-05-03 23:12 2.38132 102.13517 7467 ft 308 kts 294°
2026-05-03 23:13 2.38975 102.11558 7235 ft 306 kts 294°
2026-05-03 23:13 2.39814 102.09608 7013 ft 304 kts 294°
2026-05-03 23:13 2.40649 102.07669 6771 ft 303 kts 294°
2026-05-03 23:13 2.41480 102.05739 6537 ft 301 kts 293°
2026-05-03 23:14 2.42299 102.03834 6302 ft 296 kts 293°
2026-05-03 23:14 2.43111 102.01947 6051 ft 293 kts 293°
2026-05-03 23:14 2.43917 102.00074 5805 ft 292 kts 293°
2026-05-03 23:14 2.44676 101.98309 5575 ft 291 kts 293°
2026-05-03 23:15 2.45475 101.96451 5332 ft 290 kts 293°
2026-05-03 23:15 2.46260 101.94626 5095 ft 289 kts 294°
2026-05-03 23:15 2.47052 101.92786 4848 ft 288 kts 293°
2026-05-03 23:15 2.47890 101.90967 4718 ft 280 kts 302°
2026-05-03 23:16 2.49190 101.89567 4713 ft 278 kts 321°
2026-05-03 23:16 2.50734 101.88447 4698 ft 268 kts 325°
2026-05-03 23:16 2.52219 101.87447 4685 ft 248 kts 326°
2026-05-03 23:16 2.53624 101.86508 4694 ft 240 kts 326°
2026-05-03 23:17 2.55014 101.85577 4483 ft 242 kts 326°
2026-05-03 23:17 2.56403 101.84642 4178 ft 242 kts 326°
2026-05-03 23:17 2.57783 101.83712 3928 ft 233 kts 326°
2026-05-03 23:17 2.59097 101.82827 3600 ft 223 kts 326°
2026-05-03 23:18 2.60339 101.81990 3315 ft 212 kts 325°
2026-05-03 23:18 2.61539 101.81182 3044 ft 202 kts 325°
2026-05-03 23:18 2.62682 101.80411 2795 ft 196 kts 325°
2026-05-03 23:18 2.63804 101.79655 2557 ft 194 kts 325°
2026-05-03 23:19 2.64901 101.78915 2310 ft 187 kts 325°
2026-05-03 23:19 2.65957 101.78203 2093 ft 180 kts 326°
2026-05-03 23:19 2.66951 101.77533 1864 ft 163 kts 325°
2026-05-03 23:19 2.67858 101.76922 1649 ft 152 kts 326°
2026-05-03 23:20 2.68724 101.76338 1476 ft 150 kts 326°
2026-05-03 23:20 2.69579 101.75762 1272 ft 149 kts 326°
2026-05-03 23:20 2.70438 101.75183 1077 ft 148 kts 326°
2026-05-03 23:20 2.71294 101.74606 902 ft 148 kts 326°
2026-05-03 23:21 2.72147 101.74029 724 ft 148 kts 326°
2026-05-03 23:21 2.73007 101.73439 540 ft 150 kts 326°
2026-05-03 23:21 2.73864 101.72855 355 ft 148 kts 326°
2026-05-03 23:21 2.74719 101.72287 166 ft 148 kts 326°
2026-05-03 23:22 2.76205 101.71288 67 ft 94 kts 326°
2026-05-03 23:22 2.76620 101.71009 67 ft 49 kts 326°
2026-05-03 23:22 2.76853 101.70811 65 ft 41 kts 304°
2026-05-03 23:23 2.76918 101.70673 67 ft 8 kts 275°
2026-05-03 23:23 2.76909 101.70630 63 ft 4 kts 237°
2026-05-03 23:23 2.76874 101.70620 68 ft 14 kts 173°
2026-05-03 23:23 2.76762 101.70686 65 ft 22 kts 146°
2026-05-03 23:24 2.76617 101.70783 62 ft 28 kts 146°
2026-05-03 23:24 2.76481 101.70875 61 ft 21 kts 146°
2026-05-03 23:24 2.76349 101.70963 62 ft 25 kts 146°
2026-05-03 23:24 2.76209 101.71057 62 ft 24 kts 146°
2026-05-03 23:25 2.76081 101.71142 69 ft 24 kts 146°
2026-05-03 23:25 2.75930 101.71244 67 ft 29 kts 146°
2026-05-03 23:25 2.75788 101.71339 70 ft 23 kts 146°
2026-05-03 23:25 2.75651 101.71432 75 ft 22 kts 146°
2026-05-03 23:26 2.75519 101.71520 66 ft 21 kts 146°
2026-05-03 23:26 2.75427 101.71518 74 ft 15 kts 236°
2026-05-03 23:26 2.75356 101.71413 72 ft 21 kts 236°
2026-05-03 23:26 2.75273 101.71289 73 ft 14 kts 236°
2026-05-03 23:27 2.75182 101.71281 68 ft 16 kts 143°
2026-05-03 23:27 2.75149 101.71305 69 ft 0 kts 145°
2026-05-03 23:27 2.75140 101.71311 72 ft 5 kts 146°
2026-05-03 23:28 2.75094 101.71297 66 ft 10 kts 230°
2026-05-03 23:28 2.75072 101.71263 68 ft 4 kts 237°
2026-05-03 23:28 2.75068 101.71256 73 ft 0 kts 237°
2026-05-03 23:28 2.75067 101.71256 73 ft 0 kts 237°